Location: Unspecified
(44.0704°N, 88.6889°W)
Time: 20:03:27
(UTC+01:00)

CZ-3 Stage 3 - Visible Passes

Search period start: 24 March 2019 00:00
Search period end: 03 April 2019 01:00
Orbit: 473 x 34718 km, 30.5° (Epoch: 24 March)

Date Brightness Start Highest point End Pass type
(mag) Time Alt. Az. Time Alt. Az. Time Alt. Az.
24 Mar 6.0 11:11:45 16° SW 11:28:17 58° SSE 20:11:03 10° SSE visible
25 Mar 6.6 07:43:14 10° SE 07:49:39 13° ESE 08:03:19 10° E visible
27 Mar 5.9 11:01:56 18° SW 11:17:41 58° SSE 19:59:40 10° SSE visible
28 Mar 6.6 07:33:25 11° ESE 07:38:59 13° ESE 07:52:31 10° E visible
30 Mar 5.9 10:52:05 20° SW 11:07:04 58° SSE 19:48:11 10° SSE visible
31 Mar 6.6 08:23:33 12° ESE 08:28:17 13° ESE 08:41:41 10° E visible
02 Apr 5.8 11:42:11 22° SW 11:56:27 59° SSE 20:36:38 10° SSE visible
